Lid_Strength_Index
-0 -0 -0 -0 -0 -0 -0 -0 -0 -0 -0 -0 -0 -1 -0 0 1 5 7 6 8 13 12 12 12 11 8 10 12 12 10 9 10 13 16 17 14 13 14 13 14 14 16 16 15 17 19 13 10 12 9 8 12 8
-1 -0 -0 -0 0 -0 -0 0 -0 -0 -0 -0 -1 -1 -1 0 1 4 7 4 5 9 9 8 12 12 9 7 9 10 10 8 8 11 11 13 13 12 13 16 11 15 12 13 14 14 13 9 9 10 10 10 11 10
-1 -1 -1 -0 0 0 0 0 0 -0 -1 -0 -1 -1 -0 0 1 4 7 5 5 8 9 7 8 7 6 7 6 11 13 8 8 6 9 11 13 11 15 14 13 12 10 12 12 11 13 12 11 9 12 12 13 13
-1 -1 -0 -1 0 1 0 0 0 0 0 0 -0 -0 -0 0 2 4 7 5 6 8 10 13 6 7 5 6 7 7 8 8 7 8 10 10 13 11 13 12 12 13 11 12 13 14 14 13 12 12 12 13 13 14
-0 0 -1 -1 -0 0 1 1 1 1 1 1 -0 -0 -0 1 2 6 7 7 7 10 15 13 8 6 6 6 7 7 8 9 10 11 11 11 11 11 15 13 15 18 18 14 14 19 19 13 14 12 12 12 13 14
0 1 1 -0 0 0 1 1 1 1 1 1 1 1 1 2 3 8 14 6 7 8 8 12 10 7 7 6 7 8 9 9 10 11 11 9 10 12 12 14 21 21 21 21 21 20 20 18 15 14 12 12 14 14
1 1 1 1 1 0 1 1 1 1 1 1 1 1 1 2 8 12 13 9 5 8 9 12 16 8 8 10 9 9 9 10 11 11 10 11 11 12 16 18 24 24 24 23 21 23 17 17 18 16 15 15 17 18
1 1 1 1 1 1 1 1 1 1 2 1 1 1 2 3 5 12 9 4 6 11 13 17 17 16 11 14 13 9 11 10 11 10 11 12 17 19 26 26 26 26 26 22 26 25 24 20 17 18 17 17 17 19
2 2 2 2 2 1 2 1 2 2 2 2 2 2 8 12 16 15 4 6 9 12 19 22 22 19 12 14 12 12 11 14 12 14 16 19 26 33 30 29 29 29 29 29 28 27 23 21 20 21 20 20 20 21
2 2 2 2 2 2 2 2 2 2 2 2 9 12 16 15 6 8 14 16 16 19 19 22 21 20 13 15 15 14 13 15 17 17 19 26 30 27 29 29 29 30 29 29 30 29 28 27 25 23 24 23 22 23
2 2 2 2 2 2 2 2 2 4 6 13 17 17 14 9 14 20 22 21 23 23 23 24 20 19 14 16 16 13 16 15 18 18 21 28 31 30 30 31 31 30 30 30 29 28 28 27 27 26 26 26 25 26
2 2 2 2 2 3 3 3 2 9 15 13 13 15 18 20 21 21 31 26 25 26 25 25 22 20 19 13 15 14 16 16 20 19 24 30 29 30 32 33 33 32 32 31 30 30 29 29 29 27 27 27 27 26
3 3 2 2 3 3 3 4 3 4 8 15 18 21 19 24 22 27 30 26 27 27 25 24 25 20 19 15 16 16 19 19 17 26 31 31 30 32 33 33 33 32 32 32 31 30 30 30 30 31 29 27 26 26
4 3 3 3 3 3 4 5 6 9 16 21 22 23 25 28 30 32 30 30 25 24 24 23 26 23 20 18 17 18 18 20 23 28 31 31 32 33 33 33 34 34 33 33 32 31 31 30 31 31 30 29 28 27
5 5 4 3 4 4 5 7 9 19 20 24 22 26 27 26 28 29 31 28 27 26 25 28 26 20 20 21 20 19 21 27 29 30 31 31 32 33 34 34 34 34 34 33 32 32 31 30 31 31 30 29 29 28
6 7 8 4 5 6 7 14 19 21 25 24 26 25 28 28 28 30 35 33 28 24 25 28 29 24 23 25 24 28 24 27 28 30 30 31 32 33 34 34 34 33 33 33 33 32 31 30 30 30 30 30 30 30
8 16 6 5 7 9 9 20 21 26 26 26 26 33 31 31 29 33 34 30 25 30 30 30 25 25 22 25 28 29 28 28 29 30 29 30 32 33 33 34 34 33 34 33 33 32 32 30 30 30 31 31 30 30
17 13 6 6 14 15 23 23 23 23 26 29 25 28 34 33 34 34 34 32 31 29 31 29 25 28 31 28 27 28 28 29 28 29 29 30 32 32 33 33 33 33 33 33 32 32 32 32 32 32 31 31 30 30
15 10 8 8 13 21 21 23 23 25 29 32 31 30 33 33 32 32 36 33 33 32 32 31 29 33 30 30 31 29 30 31 32 31 31 30 31 32 32 32 32 32 33 32 32 32 31 31 31 31 31 31 31 31
9 9 9 11 13 20 22 24 25 24 28 27 33 31 32 31 32 38 38 35 34 33 29 29 31 29 29 28 28 30 30 30 33 33 31 31 32 33 33 34 33 33 32 31 31 30 30 29 29 30 30 30 31 31
15 15 13 19 23 25 27 30 27 29 30 27 33 32 29 33 34 34 34 33 28 33 29 32 32 32 33 35 36 37 34 33 34 34 34 33 32 33 34 34 35 35 36 35 35 33 33 33 32 32 32 32 31 31
22 14 23 19 23 26 27 30 27 29 28 30 30 34 33 31 33 33 33 28 32 31 34 34 37 39 40 38 39 40 39 40 41 38 34 34 35 34 34 35 35 34 34 34 34 35 34 34 34 34 35 34 33 34
19 20 24 24 23 26 29 31 29 31 27 27 31 28 31 34 34 30 28 35 32 35 40 40 41 44 41 44 46 44 45 44 42 40 39 38 38 38 37 36 38 38 34 32 35 35 34 32 32 33 34 34 35 34
23 31 31 32 30 30 34 33 34 34 34 33 33 30 31 36 33 29 28 34 31 41 40 40 43 38 41 42 40 40 41 44 45 43 43 45 42 38 41 38 38 36 34 33 35 36 36 36 34 36 35 36 36 35
24 32 33 34 38 32 34 35 36 32 35 43 35 33 35 42 32 31 29 29 36 38 39 47 46 41 35 39 39 39 44 39 38 37 36 39 42 39 34 37 33 31 35 36 35 36 33 36 36 35 34 36 33 32
31 39 35 42 36 32 38 33 37 37 43 37 38 42 46 37 30 27 29 30 32 32 34 33 31 38 39 35 35 35 33 39 41 38 34 37 37 35 36 35 33 30 38 37 37 37 35 34 36 35 34 33 32 33
29 34 44 49 45 44 42 46 46 41 37 33 37 38 37 32 32 26 30 32 30 30 31 31 30 29 29 34 35 36 42 38 33 32 38 39 36 35 33 33 32 31 39 39 40 39 35 32 31 31 30 30 33 33
40 43 33 41 42 49 40 45 41 37 36 43 39 33 31 29 26 26 26 32 38 41 40 41 39 36 35 34 36 38 39 43 41 37 35 33 33 33 35 33 31 26 28 31 31 31 31 30 30 30 30 30 29 28
39 45 41 36 42 43 38 34 35 38 40 39 34 33 32 32 34 37 35 40 46 39 34 34 33 44 41 40 39 38 39 38 33 31 32 31 32 29 37 37 34 33 32 32 29 24 25 25 25 26 27 27 26 26
39 46 38 37 36 33 36 41 41 47 47 45 48 42 39 38 37 42 43 43 37 32 33 35 38 36 34 34 34 34 39 35 31 29 30 30 29 34 36 34 32 33 33 35 30 29 25 29 29 33 32 30 30 29
43 44 39 36 34 36 41 46 48 48 47 47 50 47 41 42 40 39 38 36 37 41 38 35 39 41 37 36 37 37 30 35 34 33 33 34 35 33 31 30 30 32 33 32 30 30 29 28 29 29 29 30 30 30
42 40 36 33 32 40 44 41 40 40 41 44 42 47 44 42 37 30 37 38 38 38 33 36 35 31 32 32 35 34 30 35 35 32 33 32 32 31 30 30 31 33 32 31 31 31 32 32 29 29 29 29 29 28
39 39 37 36 34 33 37 39 37 37 37 37 37 40 39 38 33 28 34 34 33 32 32 31 32 35 35 34 33 34 32 33 33 25 24 24 24 24 25 28 30 32 33 33 32 32 32 31 30 31 31 32 31 31